This is the latest recevied weather packets stored in our database for station/object XE2OR-10. If no packets are shown the sender has not sent any weather packets the latest 10 day(s).
| Time | Temp. | Humidity | Pressure | Rain* | Wind** | Luminosity | Snow |
|---|---|---|---|---|---|---|---|
| 1778000329 | 28.33° C | 78% | 1012.6 hPa | 0 mm | - | 736 W/m² | - |
| 1778000033 | 28.89° C | 77% | 1012.8 hPa | 0 mm | - | 801 W/m² | - |
| 1777999729 | 28.89° C | 77% | 1012.7 hPa | 0 mm | - | 752 W/m² | - |
| 1777999433 | 28.33° C | 78% | 1012.5 hPa | 0 mm | - | 789 W/m² | - |
| 1777999129 | 28.89° C | 78% | 1012.7 hPa | 0 mm | - | 807 W/m² | - |
| 1777998829 | 27.78° C | 79% | 1012.5 hPa | 0 mm | - | 817 W/m² | - |
| 1777998529 | 28.89° C | 77% | 1012.5 hPa | 0 mm | - | 840 W/m² | - |
| 1777998232 | 28.89° C | 77% | 1012.5 hPa | 0 mm | - | 880 W/m² | - |
| 1777997929 | 27.78° C | 79% | 1012.6 hPa | 0 mm | - | 807 W/m² | - |
| 1777997632 | 28.33° C | 79% | 1012.6 hPa | 0 mm | - | 845 W/m² | - |
| 1777997329 | 27.78° C | 80% | 1012.5 hPa | 0 mm | - | 829 W/m² | - |
| 1777997028 | 27.78° C | 78% | 1012.3 hPa | 0 mm | - | 780 W/m² | - |
| 1777996729 | 27.78° C | 79% | 1012.5 hPa | 0 mm | - | 747 W/m² | - |
| 1777996432 | 27.78° C | 79% | 1012.5 hPa | 0 mm | - | 758 W/m² | - |
| 1777996129 | 27.78° C | 79% | 1012.5 hPa | 0 mm | - | 751 W/m² | - |
| 1777995832 | 27.78° C | 79% | 1012.4 hPa | 0 mm | - | 761 W/m² | - |
| 1777995529 | 27.22° C | 80% | 1012.6 hPa | 0 mm | - | 706 W/m² | - |
| 1777995229 | 27.22° C | 80% | 1012.7 hPa | 0 mm | - | 619 W/m² | - |
| 1777994929 | 27.22° C | 80% | 1012.3 hPa | 0 mm | - | 657 W/m² | - |
| 1777994632 | 27.22° C | 81% | 1012.6 hPa | 0 mm | - | 559 W/m² | - |
| 1777994328 | 26.67° C | 81% | 1012.6 hPa | 0 mm | - | 550 W/m² | - |
| 1777994032 | 26.11° C | 82% | 1012.6 hPa | 0 mm | - | 631 W/m² | - |
| 1777993729 | 25.56° C | 83% | 1012.7 hPa | 0 mm | - | 625 W/m² | - |
| 1777993429 | 25.56° C | 83% | 1012.4 hPa | 0 mm | - | 582 W/m² | - |
| 1777993128 | 25.56° C | 83% | 1012.6 hPa | 0 mm | - | 529 W/m² | - |
* Rain latest hour (hover to see other rain measurements)
** Current wind speed in m/s (hover to see current wind gust speed)